Radiation Dose at Monitoring Post of Fukushima Daini Nuclear Power Station
Date,Time,MP-1(microSv/h),MP-2(microSv/h),MP-3(microSv/h),MP-4(microSv/h),MP-5(microSv/h),MP-6(microSv/h),MP-7(microSv/h),Wind Direction,Wind Velocity(m/s),Rain
2014/02/24,00:00,0.8,0.5,0.8,0.7,0.7,0.3,0.3,west-northwest,7.1,No
2014/02/24,00:10,0.8,0.5,0.8,0.7,0.7,0.3,0.3,northwest,7.7,No
2014/02/24,00:20,0.8,0.5,0.8,0.7,0.7,0.3,0.3,north-northwest,7.6,No
2014/02/24,00:30,0.8,0.5,0.8,0.7,0.7,0.3,0.3,north-northwest,6.4,No
2014/02/24,00:40,0.8,0.5,0.8,0.7,0.7,0.3,0.3,north,6.4,No
2014/02/24,00:50,0.8,0.5,0.8,0.7,0.7,0.3,0.3,north-northwest,5.8,No
2014/02/24,01:00,0.8,0.5,0.8,0.7,0.7,0.3,0.3,north-northwest,4.8,No
2014/02/24,01:10,0.8,0.5,0.8,0.7,0.7,0.3,0.3,north-northwest,3.6,No
2014/02/24,01:20,0.8,0.5,0.8,0.7,0.7,0.3,0.3,north,3.9,No
2014/02/24,01:30,0.8,0.5,0.8,0.7,0.7,0.3,0.3,north,3.7,No
2014/02/24,01:40,0.8,0.5,0.8,0.7,0.7,0.3,0.3,north,3.6,No
2014/02/24,01:50,0.8,0.5,0.8,0.7,0.7,0.3,0.3,north,3.4,No
2014/02/24,02:00,0.8,0.5,0.8,0.7,0.7,0.3,0.3,north,3.6,No
2014/02/24,02:10,0.8,0.5,0.8,0.7,0.7,0.3,0.3,north,3.9,No
2014/02/24,02:20,0.8,0.5,0.8,0.7,0.7,0.3,0.3,north,3.4,No
2014/02/24,02:30,0.8,0.5,0.8,0.7,0.7,0.3,0.3,north-northwest,4.0,No
2014/02/24,02:40,0.8,0.5,0.8,0.7,0.7,0.3,0.3,north,3.7,No
2014/02/24,02:50,0.8,0.5,0.8,0.7,0.7,0.3,0.3,north-northwest,4.0,No
2014/02/24,03:00,0.8,0.5,0.8,0.7,0.7,0.3,0.3,north-northwest,4.2,No
2014/02/24,03:10,0.8,0.5,0.8,0.7,0.7,0.3,0.3,north,3.7,No
2014/02/24,03:20,0.8,0.5,0.8,0.7,0.7,0.3,0.3,north,4.2,No
2014/02/24,03:30,0.8,0.5,0.8,0.7,0.7,0.3,0.3,north-northwest,3.3,No
2014/02/24,03:40,0.8,0.5,0.8,0.7,0.7,0.3,0.3,north,3.0,No
2014/02/24,03:50,0.8,0.5,0.8,0.7,0.7,0.3,0.3,north,2.8,No
2014/02/24,04:00,0.8,0.5,0.8,0.7,0.7,0.3,0.3,north,3.5,No
2014/02/24,04:10,0.8,0.5,0.8,0.7,0.7,0.3,0.3,north-northwest,2.2,No
2014/02/24,04:20,0.8,0.5,0.8,0.7,0.7,0.3,0.3,north-northwest,1.3,No
2014/02/24,04:30,0.8,0.5,0.8,0.7,0.7,0.3,0.3,northwest,0.8,No
2014/02/24,04:40,0.8,0.5,0.8,0.7,0.7,0.3,0.3,north,1.1,No
2014/02/24,04:50,0.8,0.5,0.8,0.7,0.7,0.3,0.3,north,1.7,No
2014/02/24,05:00,0.8,0.5,0.8,0.7,0.7,0.3,0.3,north,2.7,No
2014/02/24,05:10,0.8,0.5,0.8,0.7,0.7,0.3,0.3,north,3.4,No
2014/02/24,05:20,0.8,0.5,0.8,0.7,0.7,0.3,0.3,north,4.1,No
2014/02/24,05:30,0.8,0.5,0.8,0.7,0.7,0.3,0.3,north,3.9,No
2014/02/24,05:40,0.8,0.5,0.8,0.7,0.7,0.3,0.3,north,4.1,No
2014/02/24,05:50,0.8,0.5,0.8,0.7,0.7,0.3,0.3,north-northwest,5.0,No
2014/02/24,06:00,0.8,0.5,0.8,0.7,0.7,0.3,0.3,north,4.5,No
2014/02/24,06:10,0.8,0.5,0.8,0.7,0.7,0.3,0.3,north-northwest,4.3,No
2014/02/24,06:20,0.8,0.5,0.8,0.7,0.7,0.3,0.3,north-northwest,3.0,No
2014/02/24,06:30,0.8,0.5,0.8,0.7,0.7,0.3,0.3,north-northwest,2.7,No
2014/02/24,06:40,0.8,0.5,0.8,0.7,0.7,0.3,0.3,northwest,2.2,No
2014/02/24,06:50,0.8,0.5,0.8,0.7,0.7,0.3,0.3,northwest,1.6,No
2014/02/24,07:00,0.8,0.5,0.8,0.7,0.7,0.3,0.3,north,1.7,No
2014/02/24,07:10,0.8,0.5,0.8,0.7,0.7,0.3,0.3,north,2.2,No
2014/02/24,07:20,0.8,0.5,0.8,0.7,0.7,0.3,0.3,north,1.2,No
2014/02/24,07:30,0.8,0.5,0.8,0.7,0.7,0.3,0.3,north,2.0,No
2014/02/24,07:40,0.8,0.5,0.8,0.7,0.7,0.3,0.3,north-northeast,2.5,No
2014/02/24,07:50,0.8,0.5,0.8,0.7,0.7,0.3,0.3,north,1.7,No
2014/02/24,08:00,0.8,0.5,0.8,0.7,0.7,0.3,0.3,north,1.7,No
2014/02/24,08:10,0.8,0.5,0.8,0.7,0.7,0.3,0.3,north,0.9,No
2014/02/24,08:20,0.8,0.5,0.8,0.7,0.7,0.3,0.3,north,1.1,No
2014/02/24,08:30,0.8,0.5,0.8,0.7,0.7,0.3,0.3,-,CALM,No
2014/02/24,08:40,0.8,0.5,0.8,0.7,0.7,0.3,0.3,north-northeast,0.8,No
2014/02/24,08:50,0.8,0.5,0.8,0.7,0.7,0.3,0.3,east,1.1,No
2014/02/24,09:00,0.8,0.5,0.8,0.7,0.7,0.3,0.3,north-northeast,1.4,No
2014/02/24,09:10,0.8,0.5,0.8,0.7,0.7,0.3,0.3,north,1.6,No
2014/02/24,09:20,0.8,0.5,0.8,0.7,0.7,0.3,0.3,north,2.0,No
2014/02/24,09:30,0.8,0.5,0.8,0.7,0.7,0.3,0.3,north-northeast,2.2,No
2014/02/24,09:40,0.8,0.5,0.8,0.7,0.7,0.3,0.3,north-northeast,2.1,No
2014/02/24,09:50,0.8,0.5,0.8,0.7,0.7,0.3,0.3,northeast,2.5,No
2014/02/24,10:00,0.8,0.5,0.8,0.7,0.7,0.3,0.3,northeast,4.1,No
2014/02/24,10:10,0.8,0.5,0.8,0.7,0.7,0.3,0.3,north-northeast,3.6,No
2014/02/24,10:20,0.8,0.5,0.8,0.7,0.7,0.3,0.3,northeast,2.8,No
2014/02/24,10:30,0.8,0.5,0.8,0.7,0.7,0.3,0.3,northeast,4.6,No
2014/02/24,10:40,0.8,0.5,0.8,0.7,0.7,0.3,0.3,northeast,5.0,No
2014/02/24,10:50,0.8,0.5,0.8,0.7,0.7,0.3,0.3,northeast,5.4,No
2014/02/24,11:00,0.8,0.5,0.8,0.7,0.7,0.3,0.3,northeast,3.9,No
2014/02/24,11:10,0.8,0.5,0.8,0.7,0.7,0.3,0.3,northeast,3.9,No
2014/02/24,11:20,0.8,0.5,0.8,0.7,0.7,0.3,0.3,northeast,3.7,No
2014/02/24,11:30,0.8,0.5,0.8,0.7,0.7,0.3,0.3,northeast,4.2,No
2014/02/24,11:40,0.8,0.5,0.8,0.7,0.7,0.3,0.3,northeast,3.5,No
2014/02/24,11:50,0.8,0.5,0.8,0.7,0.7,0.3,0.3,northeast,4.1,No
2014/02/24,12:00,0.8,0.5,0.8,0.7,0.7,0.3,0.3,northeast,3.3,No
2014/02/24,12:10,0.8,0.5,0.8,0.7,0.7,0.3,0.3,northeast,4.0,No
2014/02/24,12:20,0.8,0.5,0.8,0.7,0.7,0.3,0.3,northeast,3.6,No
2014/02/24,12:30,0.8,0.5,0.8,0.7,0.7,0.3,0.3,northeast,4.1,No
2014/02/24,12:40,0.8,0.5,0.8,0.7,0.7,0.3,0.3,northeast,3.2,No
2014/02/24,12:50,0.8,0.5,0.8,0.7,0.7,0.3,0.3,northeast,3.4,No
2014/02/24,13:00,0.8,0.5,0.8,0.7,0.7,0.3,0.3,east-northeast,2.8,No
2014/02/24,13:10,0.8,0.5,0.8,0.7,0.7,0.3,0.3,east-northeast,2.9,No
2014/02/24,13:20,0.8,0.5,0.8,0.7,0.7,0.3,0.3,east-northeast,3.1,No
2014/02/24,13:30,0.8,0.5,0.8,0.7,0.7,0.3,0.3,east,2.3,No
2014/02/24,13:40,0.8,0.5,0.8,0.7,0.7,0.3,0.3,east-northeast,2.7,No
2014/02/24,13:50,0.8,0.5,0.8,0.7,0.7,0.3,0.3,east,1.3,No
2014/02/24,14:00,0.8,0.5,0.8,0.7,0.7,0.3,0.3,east,1.3,No
2014/02/24,14:10,0.8,0.5,0.8,0.7,0.7,0.3,0.3,east,1.1,No
2014/02/24,14:20,0.8,0.5,0.8,0.7,0.7,0.3,0.3,east,1.0,No
2014/02/24,14:30,0.8,0.5,0.8,0.7,0.7,0.3,0.3,southeast,0.8,No
2014/02/24,14:40,0.8,0.5,0.8,0.7,0.7,0.3,0.3,east,0.8,No
2014/02/24,14:50,0.8,0.5,0.8,0.7,0.7,0.3,0.3,east,2.0,No
2014/02/24,15:00,0.8,0.5,0.8,0.7,0.7,0.3,0.3,east-southeast,1.3,No
2014/02/24,15:10,0.8,0.5,0.8,0.7,0.7,0.3,0.3,east,1.1,No
2014/02/24,15:20,0.8,0.5,0.8,0.7,0.7,0.3,0.3,northeast,0.8,No
2014/02/24,15:30,0.8,0.5,0.8,0.7,0.7,0.3,0.3,-,CALM,No
2014/02/24,15:40,0.8,0.5,0.8,0.7,0.7,0.3,0.3,east,0.7,No
2014/02/24,15:50,0.8,0.5,0.8,0.7,0.7,0.3,0.3,east-southeast,0.8,No
2014/02/24,16:00,0.8,0.5,0.8,0.7,0.7,0.3,0.3,east-southeast,1.0,No
2014/02/24,16:10,0.8,0.5,0.8,0.7,0.7,0.3,0.3,east,1.6,No
2014/02/24,16:20,0.8,0.5,0.8,0.7,0.7,0.3,0.3,southeast,1.0,No
2014/02/24,16:30,0.8,0.5,0.8,0.7,0.7,0.3,0.3,east-southeast,0.6,No
2014/02/24,16:40,0.8,0.5,0.8,0.7,0.7,0.3,0.3,-,CALM,No
2014/02/24,16:50,0.8,0.5,0.8,0.7,0.7,0.3,0.3,east,0.5,No
2014/02/24,17:00,0.8,0.5,0.8,0.7,0.7,0.3,0.3,-,CALM,No
2014/02/24,17:10,0.8,0.5,0.8,0.7,0.7,0.3,0.3,-,CALM,No
2014/02/24,17:20,0.8,0.5,0.8,0.7,0.7,0.3,0.3,-,CALM,No
2014/02/24,17:30,0.8,0.5,0.8,0.7,0.7,0.3,0.3,-,CALM,No
2014/02/24,17:40,0.8,0.5,0.8,0.7,0.7,0.3,0.3,west,1.4,No
2014/02/24,17:50,0.8,0.5,0.8,0.7,0.7,0.3,0.3,west-southwest,1.0,No
2014/02/24,18:00,0.8,0.5,0.8,0.7,0.7,0.3,0.3,west-southwest,0.6,No
2014/02/24,18:10,0.8,0.5,0.8,0.7,0.7,0.3,0.3,west-southwest,0.8,No
2014/02/24,18:20,0.8,0.5,0.8,0.7,0.7,0.3,0.3,-,CALM,No
2014/02/24,18:30,0.8,0.5,0.8,0.7,0.7,0.3,0.3,-,CALM,No
2014/02/24,18:40,0.8,0.5,0.8,0.7,0.7,0.3,0.3,southwest,0.5,No
2014/02/24,18:50,0.8,0.5,0.8,0.7,0.7,0.3,0.3,-,CALM,No
2014/02/24,19:00,0.8,0.5,0.8,0.7,0.7,0.3,0.3,west-southwest,0.7,No
2014/02/24,19:10,0.8,0.5,0.8,0.7,0.7,0.3,0.3,west-southwest,0.5,No
2014/02/24,19:20,0.8,0.5,0.8,0.7,0.7,0.3,0.3,-,CALM,No
2014/02/24,19:30,0.8,0.5,0.8,0.7,0.7,0.3,0.3,-,CALM,No
2014/02/24,19:40,0.8,0.5,0.8,0.7,0.7,0.3,0.3,-,CALM,No
2014/02/24,19:50,0.8,0.5,0.8,0.7,0.7,0.3,0.3,-,CALM,No
2014/02/24,20:00,0.8,0.5,0.8,0.7,0.7,0.3,0.3,southwest,0.9,No
2014/02/24,20:10,0.8,0.5,0.8,0.7,0.7,0.3,0.3,southwest,0.8,No
2014/02/24,20:20,0.8,0.5,0.8,0.7,0.7,0.3,0.3,southwest,1.1,No
2014/02/24,20:30,0.8,0.5,0.8,0.7,0.7,0.3,0.3,-,CALM,No
2014/02/24,20:40,0.8,0.5,0.8,0.7,0.7,0.3,0.3,-,CALM,No
2014/02/24,20:50,0.8,0.5,0.8,0.7,0.7,0.3,0.3,-,CALM,No
2014/02/24,21:00,0.8,0.5,0.8,0.7,0.7,0.3,0.3,-,CALM,No
2014/02/24,21:10,0.8,0.5,0.8,0.7,0.7,0.3,0.3,-,CALM,No
2014/02/24,21:20,0.8,0.5,0.8,0.7,0.7,0.3,0.3,-,CALM,No
2014/02/24,21:30,0.8,0.5,0.8,0.7,0.7,0.3,0.3,-,CALM,No
2014/02/24,21:40,0.8,0.5,0.8,0.7,0.7,0.3,0.3,-,CALM,No
2014/02/24,21:50,0.8,0.5,0.8,0.7,0.7,0.3,0.3,-,CALM,No
2014/02/24,22:00,0.8,0.5,0.8,0.7,0.7,0.3,0.3,-,CALM,No
2014/02/24,22:10,0.8,0.5,0.8,0.7,0.7,0.3,0.3,-,CALM,No
2014/02/24,22:20,0.8,0.5,0.8,0.7,0.7,0.3,0.3,-,CALM,No
2014/02/24,22:30,0.8,0.5,0.8,0.7,0.7,0.3,0.3,-,CALM,No
2014/02/24,22:40,0.8,0.5,0.8,0.7,0.7,0.3,0.3,-,CALM,No
2014/02/24,22:50,0.8,0.5,0.8,0.7,0.7,0.3,0.3,-,CALM,No
2014/02/24,23:00,0.8,0.5,0.8,0.7,0.7,0.3,0.3,north,1.3,No
2014/02/24,23:10,0.8,0.5,0.8,0.7,0.7,0.3,0.3,north-northwest,1.6,No
2014/02/24,23:20,0.8,0.5,0.8,0.7,0.7,0.3,0.3,north-northwest,2.1,No
2014/02/24,23:30,0.8,0.5,0.8,0.7,0.7,0.3,0.3,north-northwest,1.4,No
2014/02/24,23:40,0.8,0.5,0.8,0.7,0.7,0.3,0.3,north-northwest,2.2,No
2014/02/24,23:50,0.8,0.5,0.8,0.7,0.7,0.3,0.3,northwest,2.6,No
